Overview Statistics Trail Chart Weather Telemetry Raw packets
 

This is the latest recevied weather packets stored in our database for station/object N0HOT. If no packets are shown the sender has not sent any weather packets the latest 10 day(s).

<< 1 2 3 4 5 6 7 >>
Time Temp. Humidity Pressure Rain* Wind** Luminosity Snow
1788642073 27.78° C 65% 1015.6 hPa 0 mm - 129 W/m² -
1788641773 28.33° C 64% 1015.6 hPa 0 mm - 111 W/m² -
1788641473 28.33° C 66% 1015.6 hPa 0 mm - 135 W/m² -
1788641172 28.89° C 63% 1016 hPa 0 mm - 147 W/m² -
1788640868 28.89° C 65% 1016 hPa 0 mm - 133 W/m² -
1788640562 29.44° C 63% 1015.6 hPa 0 mm - 128 W/m² -
1788640257 29.44° C 62% 1016 hPa 0 mm - 183 W/m² -
1788639953 29.44° C 59% 1016 hPa 0 mm - 350 W/m² -
1788639648 29.44° C 61% 1016 hPa 0 mm - 227 W/m² -
1788639344 28.89° C 59% 1016 hPa 0 mm - 560 W/m² -
1788639043 28.89° C 62% 1016 hPa 0 mm - 206 W/m² -
1788638738 28.89° C 60% 1015.6 hPa 0 mm - 192 W/m² -
1788638438 28.33° C 59% 1016.3 hPa 0 mm - 252 W/m² -
1788638132 28.33° C 61% 1016 hPa 0 mm - 666 W/m² -
1788637827 28.33° C 61% 1016 hPa 0 mm - 641 W/m² -
1788637522 28.33° C 61% 1016 hPa 0 mm - 315 W/m² -
1788637222 27.78° C 62% 1016.3 hPa 0 mm - 360 W/m² -
1788636922 27.78° C 62% 1016.3 hPa 0 mm - 364 W/m² -
1788636617 27.22° C 62% 1016.3 hPa 0 mm - 334 W/m² -
1788636312 27.22° C 63% 1016.7 hPa 0 mm - 613 W/m² -
1788636009 27.22° C 64% 1016.3 hPa 0 mm - 259 W/m² -
1788635707 27.22° C 67% 1016.7 hPa 0 mm - 503 W/m² -
1788635407 26.67° C 68% 1016.7 hPa 0 mm - 150 W/m² -
1788635140 26.67° C 68% 1016.7 hPa 0 mm - 131 W/m² -
1788634804 26.67° C 65% 1016.7 hPa 0 mm - 151 W/m² -

* Rain latest hour (hover to see other rain measurements)
** Current wind speed in m/s (hover to see current wind gust speed)